TimeCEST,TemperatureF,Dew PointF,Humidity,Sea Level PressureIn,VisibilityMPH,Wind Direction,Wind SpeedMPH,Gust SpeedMPH,PrecipitationIn,Events,Conditions,WindDirDegrees,DateUTC
12:55 AM,68.0,64.4,88,29.83,6.2,WSW,1.2,-,N/A,,Partly Cloudy,240,2012-10-11 22:55:00
1:55 AM,68.0,64.4,88,29.83,6.2,SE,3.5,-,N/A,,Partly Cloudy,140,2012-10-11 23:55:00
2:00 AM,68,65,85,29.84,9,SE,3.5,,,,Scattered Clouds,140,2012-10-12 00:00:00
2:55 AM,68.0,64.4,88,29.83,6.2,East,2.3,-,N/A,,Mostly Cloudy,80,2012-10-12 00:55:00
3:55 AM,68.0,64.4,88,29.83,6.2,NE,5.8,-,N/A,Thunderstorm,Scattered Clouds,50,2012-10-12 01:55:00
5:00 AM,69,64,79,29.83,7,East,5.8,,,Thunderstorm,Thunderstorm,80,2012-10-12 03:00:00
5:55 AM,69.8,64.4,83,29.80,6.2,South,3.5,-,N/A,Thunderstorm,Thunderstorm,170,2012-10-12 03:55:00
6:55 AM,68.0,64.4,88,29.83,6.2,NNE,4.6,-,N/A,Thunderstorm,Scattered Clouds,30,2012-10-12 04:55:00
7:55 AM,68.0,64.4,88,29.83,4.3,Calm,Calm,-,N/A,Thunderstorm,Thunderstorm,0,2012-10-12 05:55:00
8:00 AM,68,64,84,29.85,4,Calm,Calm,,,Thunderstorm,Thunderstorm,,2012-10-12 06:00:00
8:25 AM,68.0,64.4,88,29.83,4.3,Calm,Calm,-,N/A,,Scattered Clouds,0,2012-10-12 06:25:00
8:55 AM,68.0,64.4,88,29.86,3.7,North,3.5,-,N/A,,Scattered Clouds,350,2012-10-12 06:55:00
9:55 AM,71.6,68.0,88,29.86,5.0,NNW,3.5,-,N/A,,Scattered Clouds,340,2012-10-12 07:55:00
10:55 AM,77.0,68.0,74,29.86,6.2,WNW,3.5,-,N/A,,Partly Cloudy,290,2012-10-12 08:55:00
11:00 AM,78,68,63,29.87,7,WNW,3.5,,,,Partly Cloudy,290,2012-10-12 09:00:00
11:55 AM,80.6,68.0,65,29.86,6.2,NW,3.5,-,N/A,,Scattered Clouds,310,2012-10-12 09:55:00
12:55 PM,80.6,66.2,61,29.86,6.2,NNW,5.8,-,N/A,,Scattered Clouds,330,2012-10-12 10:55:00
1:32 PM,80.6,66.2,61,29.83,6.2,North,6.9,-,N/A,Thunderstorm,Thunderstorm,360,2012-10-12 11:32:00
1:37 PM,80.6,66.2,61,29.83,6.2,North,6.9,-,N/A,Rain-Thunderstorm,Light Thunderstorms and Rain,360,2012-10-12 11:37:00
1:55 PM,80.6,64.4,58,29.83,6.2,NNW,9.2,-,N/A,Rain-Thunderstorm,Light Thunderstorms and Rain,340,2012-10-12 11:55:00
2:00 PM,81,64,48,29.85,7,NNW,9.2,,,Rain-Thunderstorm,Thunderstorms and Rain,340,2012-10-12 12:00:00
2:19 PM,80.6,64.4,58,29.83,6.2,NNW,9.2,-,N/A,Thunderstorm,Thunderstorm,340,2012-10-12 12:19:00
2:37 PM,80.6,64.4,58,29.83,6.2,NNW,11.5,-,N/A,,Scattered Clouds,340,2012-10-12 12:37:00
2:55 PM,84.2,62.6,48,29.83,6.2,NNW,12.7,-,N/A,,Scattered Clouds,330,2012-10-12 12:55:00
3:55 PM,82.4,64.4,54,29.83,6.2,NNW,19.6,-,N/A,,Partly Cloudy,330,2012-10-12 13:55:00
4:55 PM,78.8,66.2,65,29.83,6.2,NNW,15.0,-,N/A,,Partly Cloudy,340,2012-10-12 14:55:00
5:00 PM,79,67,57,29.86,12,NNW,15.0,,,,Partly Cloudy,340,2012-10-12 15:00:00
5:55 PM,77.0,68.0,74,29.86,6.2,NNW,12.7,-,N/A,,Partly Cloudy,330,2012-10-12 15:55:00
6:55 PM,73.4,68.0,83,29.86,6.2,NNW,11.5,-,N/A,,Partly Cloudy,330,2012-10-12 16:55:00
8:55 PM,71.6,68.0,88,29.89,6.2,NNW,9.2,-,N/A,,Partly Cloudy,340,2012-10-12 18:55:00
10:55 PM,69.8,66.2,88,29.89,6.2,NW,4.6,-,N/A,,Partly Cloudy,320,2012-10-12 20:55:00
11:00 PM,70,67,86,29.91,7,NW,4.6,,,,Scattered Clouds,320,2012-10-12 21:00:00